Temperature
30 31 31 31 31 31 31 31 31 30 30 30 30 30 29 27 27 27 26 25 24 23 23 22 21 20 20 19 19 19 19 18 18 18 18 18 18 18 18 18 18 18 17 18
31 31 31 31 31 31 31 30 30 30 30 30 30 30 30 28 27 27 26 25 25 24 23 22 21 20 20 19 19 19 19 19 19 18 18 18 18 18 18 18 18 18 18 18
30 31 31 31 31 30 31 31 30 30 30 30 30 30 29 29 27 27 26 26 25 24 24 22 21 21 20 20 19 19 19 19 19 19 18 18 18 18 18 18 18 18 18 18
31 31 30 30 31 31 30 31 30 30 30 30 30 30 30 30 29 28 27 26 26 25 24 23 22 21 21 20 20 20 20 19 19 19 18 18 18 18 18 18 18 18 18 18
30 30 30 30 31 31 30 30 30 30 30 31 30 30 30 30 29 29 28 27 26 25 24 23 23 22 21 21 20 20 20 20 20 19 19 18 18 18 18 18 18 18 18 18
31 31 31 31 31 30 30 30 30 30 31 30 30 30 30 31 30 30 29 27 26 25 25 24 23 22 21 21 21 20 20 20 20 19 19 19 19 18 18 18 18 18 18 18
30 30 30 30 30 30 30 30 30 30 30 30 30 30 30 30 30 29 29 27 26 25 25 24 23 22 21 21 21 21 21 21 20 20 19 19 19 19 19 18 18 18 18 18
29 30 30 30 30 30 30 31 29 29 30 30 30 30 30 30 29 28 28 27 26 26 25 24 23 22 22 21 21 21 21 21 20 20 20 19 19 19 19 18 18 18 18 18
30 30 30 30 31 31 30 30 31 30 30 30 30 30 30 30 30 29 28 27 27 26 25 24 23 23 22 21 21 21 21 20 20 20 20 19 19 19 19 19 18 18 18 18
30 29 30 30 30 30 31 31 30 30 29 29 30 30 30 29 29 29 29 28 27 26 25 24 23 23 22 21 21 21 21 20 20 20 20 19 19 19 19 19 18 18 18 18
30 29 29 30 29 30 29 30 30 30 30 29 29 30 30 29 29 29 28 27 26 25 25 24 23 22 22 21 21 21 20 20 20 20 20 19 19 19 19 19 18 18 18 18
29 30 29 29 29 29 30 30 30 29 29 29 30 30 30 29 29 28 28 26 25 25 25 24 23 22 22 21 21 20 20 20 20 20 20 20 19 19 19 19 18 18 18 18
28 28 28 28 29 29 29 29 30 30 29 29 29 29 29 28 28 28 27 26 25 24 24 23 22 22 21 21 21 20 20 20 20 20 20 20 19 19 19 19 19 18 18 18
27 28 28 28 29 29 29 29 29 29 29 29 29 29 29 28 28 27 26 25 25 24 23 23 22 21 21 21 20 20 20 20 20 20 19 19 19 19 19 19 18 18 18 18
27 27 28 28 29 29 28 29 29 29 29 29 29 29 29 28 27 26 25 25 24 24 23 22 22 21 21 20 20 20 20 20 20 19 19 19 19 19 19 18 18 18 18 17
26 26 27 27 28 28 27 28 28 28 29 29 29 28 28 27 26 25 25 24 24 23 23 22 21 21 20 20 20 20 20 20 20 19 19 19 19 19 18 18 18 17 17 17
26 25 26 27 27 27 27 28 28 28 28 28 28 28 27 27 26 25 24 24 23 23 22 22 21 21 20 20 20 20 20 20 20 19 19 19 19 19 18 18 17 17 17 17
25 24 26 27 26 25 27 28 28 27 27 28 27 27 26 26 25 24 24 23 22 22 22 21 21 20 20 20 19 19 19 19 19 19 19 19 18 18 18 18 17 17 17 17
24 24 25 26 26 26 27 26 27 26 26 27 26 26 25 24 24 24 23 22 22 21 21 21 21 20 20 19 19 19 19 19 19 19 19 18 18 18 18 17 17 17 17 16
23 23 25 25 25 25 27 26 25 26 25 25 25 24 24 24 26 25 21 21 20 20 20 20 20 20 19 19 19 19 18 18 18 18 18 18 18 18 18 18 17 17 16 16
23 23 24 25 25 26 25 24 24 25 25 23 23 23 23 23 23 21 20 20 19 19 19 19 19 19 19 18 18 18 18 18 18 18 18 18 18 18 18 17 17 17 16 16
24 24 24 24 25 25 23 24 24 23 21 21 21 21 21 21 20 19 19 18 18 18 18 18 18 18 18 18 18 18 18 18 17 17 17 17 17 17 17 17 16 16 16 16
23 23 24 24 23 22 21 21 20 20 20 20 20 20 20 20 19 18 18 18 18 18 18 18 18 18 18 18 18 18 18 17 17 17 17 17 17 17 16 16 16 16 16 16
21 20 22 22 22 21 20 20 19 19 19 20 19 19 19 19 18 18 17 17 17 17 17 17 17 17 17 17 17 17 17 17 17 16 16 16 16 16 16 16 16 15 15 15
21 21 21 21 21 21 20 19 19 19 19 19 19 18 18 18 18 17 17 16 16 16 16 16 16 16 16 16 16 16 16 16 16 16 16 16 16 16 15 15 15 15 15 15
20 20 21 21 20 20 20 19 18 18 18 18 18 18 17 17 17 17 16 16 16 16 16 16 16 16 16 16 15 15 15 15 15 15 15 15 16 15 15 15 15 15 14 14
Wind_Speed
6 7 5 3 3 3 3 2 1 2 2 2 2 2 5 9 10 10 10 9 9 8 9 8 8 7 7 6 6 5 4 4 3 2 2 2 2 1 1 2 2 1 1 2
7 7 4 4 4 4 4 3 1 2 2 2 2 2 3 7 10 10 10 10 10 10 10 9 9 8 8 8 7 6 6 5 4 3 2 1 1 1 1 1 2 1 1 1
9 3 3 6 6 6 6 5 3 1 3 5 4 4 5 6 8 9 9 10 10 10 11 11 11 10 9 8 8 6 6 6 5 4 3 3 2 2 2 2 1 1 1 1
8 5 6 8 7 7 5 3 4 4 5 3 4 2 3 6 8 9 10 10 10 11 11 12 12 11 10 9 8 7 7 7 6 6 5 4 3 2 1 1 1 1 0 1
7 7 7 8 6 6 4 2 5 5 6 5 4 4 2 5 5 7 9 9 10 11 12 12 12 11 10 10 9 8 8 7 7 6 6 5 4 3 2 2 2 1 0 0
6 5 6 5 4 5 5 5 6 7 8 5 4 5 2 1 2 3 6 8 9 10 11 11 11 11 10 9 9 8 8 8 8 8 7 6 5 4 3 2 2 2 1 1
8 8 6 5 7 8 8 8 6 6 6 4 3 5 2 1 0 2 4 6 8 9 10 11 12 12 11 10 9 8 9 8 8 8 8 7 6 5 5 4 3 3 2 1
9 9 9 7 8 7 9 10 7 6 5 4 4 4 1 1 1 2 3 5 7 9 10 11 11 11 11 11 10 9 8 8 7 7 7 7 6 5 4 4 3 2 2 1
7 6 6 5 6 7 7 8 8 8 7 6 3 3 3 3 2 3 4 6 7 8 9 10 10 10 10 10 10 9 9 8 7 7 7 6 6 5 4 3 3 2 1 1
5 6 6 5 6 5 6 6 6 7 7 7 5 5 3 3 3 3 4 5 6 7 8 9 9 9 8 8 9 9 8 7 7 7 6 6 6 6 5 4 3 2 2 2
8 7 7 7 7 7 7 8 6 6 7 8 5 2 2 0 1 2 2 3 5 6 7 8 8 8 8 8 8 8 8 8 7 7 6 6 6 6 5 5 4 4 3 3
7 7 7 7 4 3 7 8 9 7 6 7 7 2 4 1 1 1 1 2 3 4 6 7 7 8 7 7 7 8 8 8 7 7 6 6 6 6 6 6 5 4 4 4
5 6 8 9 8 7 8 8 8 8 7 7 8 3 5 2 1 1 1 2 3 4 5 6 7 7 7 7 6 7 7 7 7 7 7 7 6 6 6 5 5 5 4 4
5 7 9 9 4 6 8 8 9 10 9 8 8 5 2 1 1 1 0 2 3 5 5 7 7 7 6 6 6 6 7 7 7 6 6 6 6 6 6 5 5 5 5 5
5 8 8 7 4 5 7 8 9 10 10 9 7 6 4 1 1 1 2 2 4 5 6 7 7 7 6 6 6 5 5 6 6 6 6 5 5 5 5 4 4 4 4 5
4 6 7 8 6 7 8 9 9 9 9 9 8 7 2 1 1 2 2 3 3 4 5 6 7 7 7 6 6 5 5 5 5 5 5 4 4 4 4 4 4 4 5 4
5 6 7 9 8 9 11 9 9 9 8 8 8 5 2 3 3 3 3 3 3 3 4 5 6 6 6 6 6 6 6 5 5 5 4 4 4 4 4 4 4 4 4 5
5 6 7 7 8 11 3 2 4 6 6 6 6 4 4 3 3 3 3 3 3 3 4 5 5 5 6 5 5 5 5 5 5 5 4 4 4 3 3 3 4 4 4 4
5 6 6 8 10 9 5 4 4 6 6 4 4 3 2 2 3 4 2 2 2 3 3 3 4 5 5 5 5 5 5 5 5 4 4 4 4 3 3 3 3 3 4 4
5 6 8 8 10 10 3 4 2 4 6 1 1 2 1 3 5 2 2 1 1 2 2 2 3 4 5 5 5 6 5 4 4 4 4 3 4 3 3 3 3 3 3 4
8 7 10 11 10 6 2 3 4 7 0 3 1 1 2 2 3 2 1 1 1 1 2 2 3 4 5 5 5 5 4 4 3 3 3 3 3 4 4 3 3 3 3 3
8 8 9 9 10 5 3 3 2 2 4 2 2 2 2 2 2 1 1 1 0 1 2 2 3 3 4 5 5 5 4 3 3 3 2 2 3 3 2 2 3 3 3 4
6 4 4 4 2 3 2 1 2 3 3 2 2 2 2 2 1 1 1 0 0 1 1 2 2 3 3 4 4 4 3 3 3 3 2 2 2 2 2 2 3 4 4 4
4 3 4 3 3 2 1 1 2 3 3 3 3 2 2 2 1 1 1 1 1 1 1 2 2 3 3 3 3 3 3 3 3 3 2 2 2 3 2 2 3 3 3 4
4 3 4 5 5 4 3 3 3 3 3 3 2 2 2 2 2 2 2 2 2 2 2 2 2 2 1 2 2 2 3 3 3 3 2 3 3 2 2 2 3 3 3 3
5 6 6 5 4 5 4 4 4 4 3 3 3 3 3 3 3 3 3 3 2 2 2 1 1 1 1 1 1 2 2 2 3 3 3 3 3 2 3 3 3 2 3 2
Wind_Direction
202 218 217 222 251 289 279 260 272 95 116 221 223 209 174 182 194 193 188 186 188 188 179 180 183 182 178 177 178 183 181 171 178 169 166 148 141 135 122 118 96 91 75 73
210 221 235 242 226 235 242 249 225 143 150 236 237 227 182 187 201 202 196 195 193 186 183 185 188 188 188 186 186 186 187 185 189 174 174 164 154 154 124 103 99 90 87 63
229 231 206 222 218 227 239 253 271 229 181 210 241 204 176 176 200 204 206 204 198 193 190 187 190 192 192 189 191 193 192 189 195 184 184 172 175 190 166 158 151 150 106 69
230 226 223 230 228 237 236 254 249 224 230 218 252 251 162 178 189 199 204 205 203 197 194 190 189 192 193 191 190 193 194 193 192 193 202 206 205 191 170 193 129 160 91 22
217 214 221 231 230 234 246 222 229 237 243 251 232 263 177 172 202 201 199 201 202 196 194 192 190 190 193 190 190 189 190 192 193 198 202 213 217 205 197 195 158 233 181 286
229 212 231 237 219 208 188 198 216 230 243 247 257 261 256 181 232 209 190 193 194 191 190 190 189 187 190 190 191 189 186 191 194 200 206 216 218 216 220 219 202 226 201 194
209 205 197 207 202 195 216 233 235 233 231 242 223 253 265 17 265 226 191 187 186 186 186 186 187 187 189 190 191 190 188 192 194 200 206 212 214 216 219 230 220 245 236 202
212 203 193 205 226 227 223 243 258 269 265 243 200 246 236 143 180 197 190 184 179 181 185 186 187 187 189 188 189 189 190 193 194 203 206 209 211 220 222 221 242 239 253 236
222 204 170 199 226 236 220 236 261 265 270 269 249 220 202 202 199 187 178 176 178 180 182 184 184 184 186 188 187 188 188 190 192 202 207 206 208 217 217 211 222 231 239 234
237 230 192 185 202 224 250 236 238 250 262 261 247 239 232 200 209 198 183 179 178 180 180 180 180 179 180 183 183 183 182 182 183 194 203 198 202 207 210 214 214 232 240 251
230 229 208 200 220 221 208 219 239 249 263 269 267 257 66 215 222 215 186 175 174 181 182 180 178 174 174 176 178 179 180 177 180 189 195 203 203 203 204 211 215 217 226 233
226 232 227 217 209 264 238 236 230 243 248 260 275 262 95 117 140 182 164 154 163 170 174 172 169 166 167 170 174 177 178 177 181 183 187 194 200 202 207 209 215 218 222 230
206 226 222 209 201 206 224 227 234 244 249 252 260 244 119 134 137 137 141 153 159 164 167 162 161 161 163 167 171 174 179 181 180 180 186 191 196 203 211 215 218 219 224 232
228 230 244 249 246 210 216 220 224 234 245 251 251 255 210 213 212 179 153 169 162 163 167 164 162 164 164 166 168 174 182 185 181 185 194 197 202 206 213 217 219 221 225 231
226 228 235 253 260 238 237 228 221 233 252 263 264 265 271 256 236 203 189 187 175 169 170 169 169 170 171 172 173 175 181 184 184 189 197 200 206 208 216 218 221 220 226 231
222 225 220 229 231 236 248 237 231 235 246 253 262 269 297 197 210 190 178 188 192 182 179 177 176 175 179 180 179 176 181 183 185 193 196 196 202 205 211 217 223 226 228 234
207 211 227 230 219 237 239 233 232 234 241 253 257 265 259 244 237 226 209 199 203 201 189 185 185 185 186 186 179 177 181 179 182 188 189 185 189 196 207 223 227 236 237 234
215 221 232 238 225 236 237 175 226 237 247 253 266 268 254 255 247 241 220 214 215 217 206 193 191 188 186 178 171 171 170 167 167 170 175 180 189 194 203 217 229 237 242 238
218 217 234 238 237 244 218 196 219 235 248 250 256 265 260 253 231 213 201 228 231 223 221 210 202 189 173 166 160 160 163 166 167 169 175 182 189 196 207 222 235 241 244 245
191 219 235 235 242 247 219 140 184 234 231 172 268 277 270 240 236 199 73 339 270 241 216 215 200 178 160 158 160 163 165 167 177 182 188 194 196 200 209 218 232 243 247 250
199 212 229 238 241 241 77 133 193 228 71 57 345 313 267 261 316 360 350 305 278 226 202 190 183 173 164 163 163 168 170 178 188 191 196 208 208 209 213 218 230 243 247 250
219 218 222 234 240 233 71 172 226 348 18 4 344 324 300 305 332 344 336 348 349 176 171 171 167 163 163 167 168 168 180 187 186 192 203 220 232 235 208 209 228 236 241 242
236 259 250 246 266 41 64 33 356 332 311 315 319 316 291 289 302 317 305 306 242 172 176 180 170 166 172 177 180 180 187 183 181 191 206 221 226 235 230 228 232 235 236 248
216 251 248 243 234 252 268 299 309 304 294 298 297 287 273 269 283 270 255 258 253 221 203 198 177 182 187 190 192 187 186 188 194 201 212 222 226 231 225 244 248 252 257 259
254 232 239 243 254 259 261 292 300 307 303 296 292 286 278 271 272 267 257 250 244 235 230 202 175 168 195 194 200 203 198 200 203 211 228 239 238 238 241 249 274 268 275 280
242 242 248 253 262 269 280 296 298 289 286 289 289 286 280 266 264 262 258 254 241 230 227 219 198 170 173 213 230 232 225 221 223 227 234 244 246 243 246 245 250 227 253 228
Height
1507 1505 1504 1503 1502 1502 1503 1505 1507 1507 1507 1509 1510 1510 1512 1518 1521 1522 1525 1528 1531 1533 1536 1538 1539 1540 1541 1542 1543 1544 1545 1545 1546 1547 1548 1548 1549 1549 1549 1549 1549 1549 1549 1549
1505 1504 1502 1502 1503 1504 1505 1507 1507 1507 1508 1509 1509 1509 1509 1514 1517 1519 1522 1525 1528 1531 1534 1536 1537 1539 1540 1541 1542 1543 1544 1545 1546 1547 1547 1548 1549 1549 1550 1550 1549 1549 1549 1549
1504 1501 1502 1503 1504 1506 1505 1506 1506 1508 1508 1507 1509 1509 1508 1511 1515 1518 1520 1522 1525 1528 1530 1533 1535 1537 1539 1540 1541 1543 1543 1544 1545 1546 1548 1548 1548 1549 1550 1550 1550 1550 1550 1550
1501 1500 1503 1503 1503 1504 1507 1502 1504 1506 1509 1508 1508 1515 1507 1506 1510 1514 1517 1519 1521 1524 1527 1530 1532 1534 1536 1538 1539 1541 1542 1543 1544 1545 1547 1548 1549 1549 1550 1550 1550 1550 1550 1549
1500 1500 1502 1503 1502 1502 1503 1502 1504 1504 1506 1506 1505 1510 1506 1502 1506 1508 1512 1515 1518 1521 1524 1527 1530 1532 1535 1536 1538 1539 1540 1542 1543 1544 1545 1546 1548 1549 1549 1549 1549 1549 1549 1549
1497 1499 1500 1500 1500 1502 1503 1505 1505 1503 1501 1515 1508 1510 1510 1500 1502 1503 1507 1512 1515 1518 1521 1525 1528 1530 1532 1534 1536 1537 1538 1540 1541 1543 1544 1545 1546 1547 1548 1548 1549 1549 1549 1548
1500 1498 1499 1500 1501 1502 1502 1506 1514 1516 1515 1514 1503 1507 1508 1499 1500 1503 1506 1509 1513 1516 1519 1522 1525 1527 1530 1532 1534 1535 1536 1538 1539 1541 1542 1543 1544 1545 1546 1547 1548 1548 1548 1548
1503 1503 1497 1497 1498 1499 1500 1501 1515 1523 1518 1508 1504 1507 1501 1498 1501 1503 1506 1508 1511 1514 1517 1520 1522 1525 1527 1529 1531 1533 1534 1536 1537 1539 1540 1541 1543 1544 1545 1545 1546 1547 1547 1547
1496 1499 1494 1496 1496 1496 1500 1499 1495 1503 1505 1510 1504 1501 1498 1498 1499 1502 1504 1507 1509 1512 1515 1518 1521 1523 1525 1527 1529 1530 1532 1534 1535 1537 1538 1539 1540 1542 1543 1543 1544 1545 1545 1545
1491 1500 1494 1496 1497 1497 1494 1494 1499 1504 1518 1519 1509 1504 1502 1499 1499 1500 1502 1505 1508 1511 1514 1516 1519 1521 1523 1525 1527 1528 1530 1531 1533 1535 1536 1538 1538 1539 1540 1541 1542 1542 1543 1543
1490 1498 1497 1496 1498 1496 1498 1498 1498 1498 1503 1511 1516 1507 1492 1497 1498 1499 1501 1504 1507 1510 1512 1514 1517 1519 1521 1523 1525 1526 1528 1529 1531 1533 1534 1536 1537 1537 1538 1539 1540 1540 1540 1541
1492 1491 1496 1495 1493 1493 1492 1493 1496 1505 1508 1505 1506 1506 1493 1496 1498 1500 1502 1505 1507 1509 1511 1514 1516 1518 1520 1521 1523 1525 1526 1528 1529 1531 1532 1534 1535 1536 1536 1537 1538 1538 1538 1538
1493 1495 1504 1502 1500 1496 1494 1493 1493 1494 1498 1502 1506 1504 1494 1497 1498 1500 1503 1505 1507 1509 1511 1513 1515 1517 1518 1520 1521 1523 1524 1526 1528 1529 1530 1531 1532 1533 1534 1535 1535 1536 1536 1536
1495 1493 1497 1500 1494 1490 1494 1494 1493 1494 1498 1498 1498 1497 1494 1496 1499 1501 1503 1505 1506 1509 1510 1512 1514 1515 1517 1519 1520 1521 1523 1524 1526 1527 1529 1530 1530 1531 1532 1532 1533 1533 1533 1533
1494 1494 1493 1490 1489 1489 1492 1492 1492 1494 1492 1494 1493 1493 1493 1496 1499 1502 1504 1505 1506 1508 1509 1511 1512 1514 1515 1517 1518 1519 1521 1523 1524 1525 1526 1527 1528 1529 1529 1530 1530 1530 1530 1530
1494 1495 1494 1496 1492 1491 1494 1491 1491 1492 1491 1492 1492 1494 1493 1497 1499 1502 1503 1504 1505 1506 1508 1510 1511 1512 1514 1515 1516 1517 1519 1521 1522 1523 1524 1525 1526 1526 1527 1527 1527 1527 1527 1527
1492 1496 1498 1495 1493 1495 1496 1489 1489 1490 1489 1490 1493 1493 1494 1497 1499 1501 1502 1503 1504 1505 1507 1508 1509 1511 1512 1513 1514 1515 1517 1518 1520 1521 1522 1522 1523 1524 1524 1525 1525 1525 1525 1524
1496 1497 1495 1493 1498 1507 1489 1485 1487 1489 1490 1489 1491 1492 1495 1497 1499 1500 1502 1503 1504 1505 1506 1507 1508 1509 1510 1512 1512 1513 1515 1516 1517 1518 1519 1520 1520 1521 1521 1522 1522 1522 1521 1521
1496 1497 1495 1494 1496 1493 1488 1487 1489 1491 1492 1491 1492 1494 1496 1497 1497 1498 1501 1502 1503 1504 1505 1506 1507 1508 1508 1509 1510 1512 1513 1514 1515 1515 1516 1517 1518 1518 1518 1518 1518 1518 1518 1518
1497 1496 1495 1494 1499 1500 1487 1487 1491 1492 1494 1493 1494 1495 1496 1497 1494 1496 1500 1501 1502 1502 1503 1504 1505 1506 1506 1507 1509 1510 1511 1512 1512 1513 1514 1515 1515 1515 1515 1515 1515 1515 1515 1514
1494 1496 1494 1494 1494 1486 1487 1490 1492 1497 1494 1495 1496 1497 1497 1497 1497 1499 1500 1500 1500 1501 1501 1502 1503 1504 1504 1505 1506 1507 1509 1509 1510 1511 1512 1512 1512 1512 1512 1512 1512 1512 1511 1511
1490 1490 1493 1491 1493 1492 1491 1490 1492 1494 1496 1496 1497 1497 1498 1498 1499 1499 1499 1499 1499 1499 1500 1500 1501 1501 1502 1503 1504 1505 1506 1507 1508 1509 1509 1510 1510 1510 1509 1508 1508 1508 1508 1508
1489 1489 1486 1489 1492 1494 1494 1495 1497 1497 1497 1497 1497 1497 1498 1498 1498 1498 1498 1498 1498 1498 1499 1499 1499 1500 1501 1501 1502 1503 1504 1504 1505 1506 1506 1506 1506 1506 1506 1505 1505 1505 1505 1505
1492 1495 1492 1492 1491 1494 1496 1496 1497 1497 1497 1497 1497 1497 1497 1497 1497 1497 1497 1497 1497 1497 1497 1497 1497 1498 1498 1499 1500 1500 1501 1502 1503 1503 1503 1503 1503 1503 1503 1502 1502 1502 1502 1502
1492 1493 1492 1493 1494 1494 1495 1496 1496 1496 1496 1496 1496 1496 1496 1495 1496 1496 1496 1496 1496 1496 1496 1495 1495 1495 1496 1496 1497 1498 1499 1499 1500 1500 1500 1500 1500 1500 1499 1498 1498 1498 1498 1498
1492 1492 1491 1490 1493 1494 1494 1495 1495 1495 1494 1494 1494 1494 1494 1494 1494 1494 1494 1494 1494 1494 1494 1494 1494 1493 1493 1494 1495 1496 1496 1497 1497 1497 1497 1497 1497 1496 1496 1495 1495 1494 1494 1493